Regional Weather Roundup
Issued by NWS

Home | Current Version | Previous Version | Text Only | Print | Product List | Glossary On
Versions: 1 2 3 4 5 6 7 8 9 10 11 12 13 14 15 16 17 18 19 20 21 22 23 24 25 26 27 28 29 30 31 32 33 34 35 36 37 38 39 40 41 42 43 44 45 46 47 48 49 50
000
ASUS43 KMKX 280759
RWRWI

WISCONSIN REGIONAL WEATHER ROUNDUP
NATIONAL WEATHER SERVICE MILWAUKEE/SULLIVAN WI
200 AM CST WED JAN 28 2015

NOTE: "FAIR" INDICATES FEW OR NO CLOUDS BELOW 12,000 FEET WITH NO
SIGNIFICANT WEATHER AND/OR OBSTRUCTIONS TO VISIBILITY.

WIZ001-002-006>008-014>016-023>028-280900-
NORTHWEST WISCONSIN

CITY           SKY/WX    TMP DP  RH WIND       PRES   REMARKS
SUPERIOR ARPT  CLOUDY    25  20  82 S5        30.11F WCI  19
ASHLAND        CLOUDY    27  21  78 S5        30.13S WCI  22
HAYWARD        PTCLDY    22  18  85 S5        30.11S WCI  16
SIREN          CLOUDY    26  21  83 S7        30.11F WCI  18
CUMBERLAND     CLOUDY    23  19  86 S7        30.11F WCI  15
RICE LAKE      CLOUDY    25  21  86 S6        30.15S WCI  18
CHETEK         CLOUDY    25  21  86 SE8       30.14S WCI  16
LADYSMITH      CLOUDY    26  22  87 S8        30.15F WCI  17
EAU CLAIRE     NOT AVBL
MENOMONIE      CLOUDY    27  22  81 SE8       30.15F WCI  19
NEW RICHMOND   CLOUDY    28  24  86 S10       30.12S WCI  18
OSCEOLA        CLOUDY    29  25  87 SE10      30.13F WCI  19
$$

WIZ003>005-009-010-017-018-280900-
NORTH CENTRAL WISCONSIN

CITY           SKY/WX    TMP DP  RH WIND       PRES   REMARKS
MANITOWISH WTR CLOUDY    22  20  93 S6        30.11S WCI  14
ARBOR VITAE    CLOUDY    23  20  88 S6        30.12S WCI  16
WOODRUFF       CLOUDY    23  20  88 S6        30.12S WCI  16
RHINELANDER    CLOUDY    22  20  92 S7        30.13F FOG     WCI  13
EAGLE RIVER    CLOUDY    22  18  84 CALM      30.12F
LAND O LAKES   CLOUDY    22  19  89 S5        30.12F WCI  16
PHILLIPS       CLOUDY    23  21  93 S7        30.11F FOG     WCI  14
TOMAHAWK       CLOUDY    22  20  93 CALM      30.14F FOG
MEDFORD        CLOUDY    23  21  93 S7        30.13F FOG     WCI  15
MERRILL        CLOUDY    23  22  95 S6        30.16F FOG     WCI  16
$$

WIZ029-030-035-036-043>047-280900-
CENTRAL WISCONSIN

CITY           SKY/WX    TMP DP  RH WIND       PRES   REMARKS
WAUSAU         CLOUDY    23  19  85 SE8       30.16F WCI  14
MOSINEE        CLOUDY    23  21  93 SE5       30.18F WCI  17
MARSHFIELD     CLOUDY    24  21  88 S8        30.16F FOG     WCI  15
STEVENS POINT  CLOUDY    22  18  83 SE3       30.20S
WAUPACA        CLOUDY    25  19  80 CALM      30.23S
WAUTOMA        NOT AVBL
WISC RAPIDS    CLOUDY    24  19  81 SE5       30.20S WCI  18
CAMP DOUGLAS   NOT AVBL
$$

WIZ011>013-019>022-031-037>040-048>050-280900-
NORTHEAST WISCONSIN

CITY           SKY/WX    TMP DP  RH WIND       PRES   REMARKS
ANTIGO         CLOUDY    21  18  89 S8        30.16S WCI  11
SHAWANO        CLOUDY    24  18  75 CALM      30.23S
OCONTO         CLOUDY    13  12  95 CALM      30.25S
STURGEON BAY   CLOUDY    19  16  86 CALM      30.26F
GREEN BAY      CLOUDY    17  14  88 CALM      30.24F
MANITOWOC      PTCLDY    19  16  86 CALM      30.26F
APPLETON       CLOUDY    23  18  80 SE3       30.23S
CLINTONVILLE   CLOUDY    23  18  80 CALM      30.22F
OSHKOSH        MOCLDY    23  17  78 S5        30.24R WCI  17
$$

WIZ032>034-041-042-053>061-280900-
SOUTHWEST WISCONSIN

CITY           SKY/WX    TMP DP  RH WIND       PRES   REMARKS
LA CROSSE      CLOUDY    28  21  75 S12       30.19F WCI  18
SPARTA         CLOUDY    26  22  83 S5        30.21R WCI  21
VIROQUA        CLOUDY    25  24  95 S9        30.17S WCI  15
BOSCOBEL       CLOUDY    28  22  78 S6        30.22S WCI  22
PRAIRIE DU CHI CLOUDY    27  22  80 S6        30.22S WCI  21
PLATTEVILLE    CLOUDY    27  24  89 SE10      30.20F WCI  17
$$

WIZ056-057-062-063-064-067-068-280900-
SOUTH CENTRAL WISCONSIN

CITY           SKY/WX    TMP DP  RH WIND       PRES   REMARKS
REEDSBURG      CLOUDY    27  24  89 S6        30.20F FOG     WCI  20
BARABOO/DELLS  CLOUDY    26  23  91 S3        30.20F FOG
LONE ROCK      NOT AVBL
MINERAL POINT  CLOUDY    28  27  93 S12G17    30.19S FOG     WCI  18
MADISON        CLOUDY    25  19  78 S9        30.22F WCI  15
MIDDLETON      CLOUDY    28  23  83 S8        30.22S WCI  20
WATERTOWN      CLOUDY    23  19  84 S3        30.23F
MONROE         CLOUDY    23  21  93 SE7       30.22S WCI  15
JANESVILLE     CLOUDY    27  21  80 S6        30.24S WCI  20
$$

WIZ051-052-058>065-066-070>072-280900-
SOUTHEAST WISCONSIN

CITY           SKY/WX    TMP DP  RH WIND       PRES   REMARKS
MILWAUKEE      MOCLDY    27  17  66 CALM      30.26R
WAUKESHA       CLOUDY    21  18  86 CALM      30.26R
MILWAUKEE/TIMM MOCLDY    27  18  69 CALM      30.27R
RACINE         MOCLDY    25  19  78 W3        30.28R
BURLINGTON     MOCLDY    17  15  90 CALM      30.26R
KENOSHA        MOCLDY    22  19  89 W3        30.26R
FOND DU LAC    MOCLDY    23  17  78 S3        30.25R
SHEBOYGAN      PTCLDY    24  18  77 CALM      30.25R
WEST BEND      MOCLDY    23  18  80 CALM      30.24S
JUNEAU         CLOUDY    23  18  80 S3        30.25R
$$

LSZ147-162-280900-
LAKE SUPERIOR

STATION/POSITION TIME  TEMP    WIND        PRES    WAVE
                       AIR SEA DIR/SP/G            HT/PER
                 (UTC) (F)     (DEG/KT/KT) (MB)    (FT/S)
DEVILS ISLAND    0700   28     180/  5/  8 1021.1F
PORT WING        0700   29     190/  5/  7 1020.3
SAXON HARBOR     0700   28        CALM     1020.3F
$$

LMZ867-665-643>646-280900-
LAKE MICHIGAN

STATION/POSITION TIME  TEMP    WIND        PRES    WAVE
                       AIR SEA DIR/SP/G            HT/PER
                 (UTC) (F)     (DEG/KT/KT) (MB)    (FT/S)
NORTHPORT PIER   0703   20      CALM  /  3 1024.7R
SISTER BAY       0743   15        CALM       N/A
KEWAUNEE LAKESHO 0700   22     280/  1/  3 1023.9R
SHEBOYGAN LAKESH 0700   26     270/  4/  5 1025.7R
PORT WASHINGTON  0740   26        CALM     1025.4S
MILWAUKEE LAKESH 0700   28     300/  2/  3   N/A
KENOSHA   LAKESH 0700   27     250/  3/  3 1024.7R
$$

TC  - TEMPERATURE IN CELSIUS
VSB - VISIBILITY IN STATUTE MILES
WCI - WIND CHILL INDEX
HX  - HEAT INDEX



USA.gov is the U.S. government's official web portal to all federal, state and local government web resources and services.